Regional Weather Roundup
Issued by NWS

Home | Current Version | Previous Version | Graphics & Text | Print | Product List | Glossary On
Versions: 1 2 3 4 5 6 7 8 9 10 11 12 13 14 15 16 17 18 19 20 21 22 23 24 25 26 27 28 29 30 31 32 33 34 35 36 37 38 39 40 41 42 43 44 45 46 47 48
000
ASUS45 KTFX 301210
RWRMT
MONTANA REGIONAL WEATHER ROUNDUP
NATIONAL WEATHER SERVICE GREAT FALLS MT
600 AM MDT THU JUL 30 2015

NOTE: "FAIR" INDICATES FEW OR NO CLOUDS BELOW 12000 FEET WITH NO
SIGNIFICANT WEATHER AND/OR OBSTRUCTIONS TO VISIBILITY.

MTZ001>007-043-301300-
WEST OF THE DIVIDE

CITY           SKY/WX    TMP DP  RH WIND       PRES   REMARKS
KALISPELL      SUNNY     43  36  76 N3        30.24R
MISSOULA       CLEAR     51  43  74 CALM      30.30R
BUTTE          CLEAR     42  37  82 CALM      30.39S
MULLAN PASS    CLEAR     60  29  30 S5        30.37S
DEER LODGE       N/A     45  39  81 CALM      30.39R
EUREKA           N/A     46  37  71 CALM      30.25R
HAMILTON         N/A     55  41  58 S8        30.29R
LIBBY            N/A     45  37  76 CALM      30.24R
PLAINS           N/A     47  36  65 CALM      30.23R
RONAN            N/A     47  40  76 CALM      30.26R
THOMPSON FALLS   N/A     45  36  70 CALM      30.27R
$$

MTZ008-052>055-301300-
SOUTHWEST MONTANA

CITY           SKY/WX    TMP DP  RH WIND       PRES   REMARKS
BOZEMAN        CLEAR     46  42  86 E5        30.34R
DILLON         CLEAR     49  41  74 S8        30.36R
W YELLOWSTONE  CLEAR     32  32 100 CALM      30.47R
THREE FORKS      N/A     45  28  51 CALM      30.29R
TWIN BRIDGES     N/A     46  38  74 CALM      30.30S
$$

MTZ009-010-012-014-046-048-049-054-301300-
EAST SLOPES AND CENTRAL MONTANA

CITY           SKY/WX    TMP DP  RH WIND       PRES   REMARKS
CUT BANK       CLEAR     46  37  71 N3        30.27R
GREAT FALLS    CLEAR     48  43  82 W7        30.26R
MALMSTROM AFB  CLEAR     50  44  80 S7        30.27R
HELENA         CLEAR     55  41  59 CALM      30.31R
CONRAD           N/A     42  41  97 W2        30.25S
$$

MTZ011-013-016-021-045-047-050-051-301300-
NORTH CENTRAL MONTANA

CITY           SKY/WX    TMP DP  RH WIND       PRES   REMARKS
HAVRE          CLOUDY    52  49  89 SW5       30.22R
LEWISTOWN      CLEAR     51  41  68 SE6       30.29R
CHINOOK          N/A     54  52  94 CALM      30.21S
FORT BENTON      N/A     54  46  76 SW5       30.25R
$$

MTZ017>020-022>027-061-062-301300-
NORTHEAST MONTANA

CITY           SKY/WX    TMP DP  RH WIND       PRES   REMARKS
GLASGOW        CLEAR     56  51  84 CALM      30.17R
JORDAN           N/A     50  47  89 W3        30.19R
SIDNEY         CLEAR     54  48  82 CALM      30.15S
WOLF POINT     CLEAR     51  48  89 NW5       30.17R
MALTA            N/A     51  46  83 CALM      30.15R
PLENTYWOOD       N/A     55  52  88 NW6       30.16R
POPLAR           N/A     54  52  94 CALM      30.18R
SCOBEY           N/A     47  42  82 NW1       30.15R
$$

MTZ028>42-056>058-301300-
SOUTHCENTRAL AND SOUTHEAST MONTANA

CITY           SKY/WX    TMP DP  RH WIND       PRES   REMARKS
BAKER          CLEAR     59  40  49 N3        30.20R
BILLINGS       PTCLDY    58  40  51 SW16      30.26F
LIVINGSTON     CLEAR     46  40  79 NW5       30.33S
MILES CITY     CLEAR     54  45  71 SE7       30.18R
EKALAKA          N/A     62  35  36 SE3       30.19S
FORSYTH          N/A     55  43  62 CALM      30.20R
LAUREL           N/A     51  39  63 W1        30.23S
ROUNDUP          N/A     53  41  64 CALM      30.15R
$$

REGIONAL REPORTS...DAKOTAS

CITY           SKY/WX    TMP DP  RH WIND       PRES   REMARKS
WILLISTON      CLEAR     53  49  86 CALM      30.14R
MINOT          CLOUDY    60  53  77 SW9       30.07S
DICKINSON      PTCLDY    54  45  71 W8        30.14F
BEACH          FAIR      52  46  82 W6        30.19R
CROSBY         FAIR      55  55 100 W8        30.13R
BISMARCK       CLEAR     57  49  74 NW13      30.14R
GRAND FORKS    MOCLDY    63  56  78 W10       29.98R
FARGO          CLEAR     61  55  81 MISG      30.02R
BUFFALO SD       N/A     54  40  59 W7        30.15S
RAPID CITY     CLEAR     55  45  68 NW8       30.24S
$$

REGIONAL REPORTS...WYOMING/IDAHO/WASHINGTON

CITY           SKY/WX    TMP DP  RH WIND       PRES   REMARKS
GILLETTE       CLEAR     51  38  60 S5        30.30R
SHERIDAN       CLEAR     48  40  73 CALM      30.28S
BUFFALO WY     CLEAR     58  34  40 W9        30.35R
CODY           CLEAR     52  36  54 CALM      30.35R
YELLOWSTONE LA   N/A     34  31  88 CALM      30.54S
IDAHO FALLS    CLEAR     42  39  89 N6        30.33R
SALMON         CLEAR     48  43  81 SE3       30.33R
BOISE          CLEAR     63  37  38 SE8       30.18S
SPOKANE        PTCLDY    64  36  35 E3        30.16R
$$

REGIONAL REPORTS...ALBERTA

CITY           SKY/WX    TMP DP  RH WIND       PRES   REMARKS
EDMONTON       CLOUDY    55  45  67 W7        30.16R
CALGARY        PTCLDY    46  39  76 VRB2      30.25R
LETHBRIDGE     PTCLDY    45  41  87 SW6       30.23S
MEDICINE HAT   CLEAR     48  46  93 SW3       30.21R
WATERTON GATE    N/A     39  37  93 SW5         N/A
MILK RIVER       N/A     45  41  87 NW3         N/A
ONEFOUR          N/A     52  50  93 NE2         N/A
$$

REGIONAL REPORTS...SASKATCHEWAN

CITY           SKY/WX    TMP DP  RH WIND       PRES   REMARKS
SWIFT CURRENT  CLEAR     50  48  93 W10       30.18S
REGINA         PTCLDY    54  52  94 W12       30.11R
SASKATOON      CLEAR     50  48  93 W8        30.11R
CYPRESS HILLS    N/A     55  41  58 NW3         N/A
VAL MARIE        N/A     46  45  93 N1          N/A
ROCKGLEN         N/A     52  48  87 SW7         N/A
$$



USA.gov is the U.S. government's official web portal to all federal, state and local government web resources and services.